| time (UTC) | temp C | wind direction | speed KPH | gust KPH | rain 1hr cm | rain 24hr cm | rain mn cm | humidity % | barometer mb |
| 20260504140107 | 12 | 248 | 4.8 | 9.7 | 0.00 | 0.00 | 0.00 | 84 | 1014.3 |
| 20260504130128 | 12 | 270 | 4.8 | 11.3 | 0.00 | 0.00 | 0.00 | 84 | 1014.2 |
| 20260504120107 | 12 | 270 | 3.2 | 11.3 | 0.00 | 0.00 | 0.00 | 83 | 1014.0 |
| 20260504110106 | 13 | 270 | 11.3 | 20.9 | 0.00 | 0.00 | 0.00 | 83 | 1014.0 |
| 20260504100107 | 13 | 248 | 6.4 | 17.7 | 0.00 | 0.00 | 0.00 | 85 | 1013.8 |
| 20260504090107 | 13 | 270 | 9.7 | 19.3 | 0.00 | 0.00 | 0.00 | 84 | 1014.0 |
| 20260504080106 | 13 | 270 | 9.7 | 19.3 | 0.00 | 0.00 | 0.00 | 83 | 1014.7 |
| 20260504070106 | 14 | 248 | 9.7 | 16.1 | 0.00 | 0.00 | 0.00 | 81 | 1015.3 |
| 20260504060126 | 13 | 0.0 | 6.4 | 0.00 | 0.00 | 0.00 | 82 | 1014.1 | |
| 20260504050106 | 13 | 225 | 4.8 | 9.7 | 0.00 | 0.00 | 0.00 | 81 | 1014.3 |
| 20260504043106 | 13 | 225 | 3.2 | 8.0 | 0.00 | 0.00 | 0.00 | 79 | 1014.0 |
| 20260504040106 | 13 | 248 | 9.7 | 17.7 | 0.00 | 0.00 | 0.00 | 78 | 1013.5 |
| 20260504033107 | 14 | 248 | 11.3 | 19.3 | 0.00 | 0.00 | 0.00 | 78 | 1013.8 |
| 20260504030107 | 15 | 248 | 11.3 | 17.7 | 0.00 | 0.00 | 0.00 | 75 | 1013.5 |
| 20260504023107 | 15 | 248 | 14.5 | 25.7 | 0.00 | 0.00 | 0.00 | 74 | 1013.4 |
| 20260504020145 | 15 | 248 | 19.3 | 30.6 | 0.00 | 0.00 | 0.00 | 74 | 1013.1 |
| 20260504013105 | 15 | 248 | 19.3 | 29.0 | 0.00 | 0.00 | 0.00 | 72 | 1013.3 |
| 20260504010106 | 16 | 248 | 19.3 | 30.6 | 0.00 | 0.00 | 0.00 | 69 | 1012.9 |
| 20260504003126 | 17 | 248 | 16.1 | 29.0 | 0.00 | 0.00 | 0.00 | 66 | 1012.4 |
| 20260504000147 | 17 | 248 | 12.9 | 27.4 | 0.00 | 0.00 | 0.00 | 64 | 1012.0 |
| 20260503233105 | 17 | 270 | 11.3 | 19.3 | 0.00 | 0.00 | 0.00 | 66 | 1012.0 |
| 20260503230105 | 17 | 270 | 9.7 | 17.7 | 0.00 | 0.00 | 0.00 | 69 | 1012.4 |
| 20260503223105 | 17 | 270 | 12.9 | 22.5 | 0.00 | 0.00 | 0.00 | 71 | 1012.4 |
| 20260503220106 | 16 | 270 | 14.5 | 27.4 | 0.00 | 0.00 | 0.00 | 72 | 1012.5 |
| 20260503213105 | 17 | 270 | 14.5 | 25.7 | 0.00 | 0.00 | 0.00 | 73 | 1012.7 |
| 20260503210105 | 17 | 270 | 12.9 | 22.5 | 0.00 | 0.00 | 0.00 | 72 | 1012.8 |
| 20260503203105 | 17 | 270 | 16.1 | 27.4 | 0.00 | 0.00 | 0.00 | 74 | 1012.9 |
| 20260503200105 | 17 | 270 | 17.7 | 30.6 | 0.00 | 0.00 | 0.00 | 74 | 1013.0 |
| 20260503193105 | 17 | 270 | 11.3 | 24.1 | 0.00 | 0.00 | 0.00 | 74 | 1013.1 |
| 20260503190105 | 18 | 270 | 4.8 | 16.1 | 0.00 | 0.00 | 0.00 | 74 | 1013.1 |
| 20260503183105 | 17 | 315 | 3.2 | 11.3 | 0.00 | 0.00 | 0.00 | 79 | 1013.2 |
| 20260503180104 | 16 | 293 | 4.8 | 12.9 | 0.00 | 0.00 | 0.00 | 85 | 1013.3 |
| 20260503173104 | 15 | 270 | 3.2 | 9.7 | 0.00 | 0.00 | 0.00 | 92 | 1013.4 |
| 20260503170104 | 15 | 203 | 1.6 | 6.4 | 0.00 | 0.00 | 0.00 | 95 | 1013.2 |
| 20260503160124 | 13 | 68 | 1.6 | 4.8 | 0.00 | 0.00 | 0.00 | 96 | 1013.3 |
| 20260503150124 | 13 | 315 | 4.8 | 12.9 | 0.00 | 0.00 | 0.00 | 95 | 1013.3 |